Location: Kitchener-Waterloo
(43.4500°N, 80.5000°W)
Time: 00:52:06
(UTC-04:00)

Daily predictions for brighter satellites

Satellite Brightness Start Highest point End
(mag) Time Altitude Azimuth Time Altitude Azimuth Time Altitude Azimuth
SeaSat 1 4.1 00:09:02 27° NE 00:09:02 27° NE 00:12:32 10° N
Lacrosse 5 3.0 00:06:27 10° NW 00:09:43 40° NW 00:09:43 40° NW
BREEZE M DEB (TANK) 4.2 00:30:14 10° WNW 00:36:54 39° NNW 00:36:54 39° NNW
Cosmos 1943 Rocket 3.3 00:32:34 10° NNW 00:36:08 39° NW 00:36:08 39° NW
H-2A R/B 4.1 00:45:23 27° N 00:45:23 27° N 00:47:30 10° N
Cosmos 2061 Rocket 4.4 00:50:16 63° N 00:50:16 63° N 00:55:36 10° N
Cosmos 2100 Rocket 4.4 00:50:48 61° NNW 00:50:48 61° NNW 00:56:14 10° N
Cosmos 1802 Rocket 4.4 00:51:22 58° N 00:51:22 58° N 00:56:15 10° N
USA 267 4.3 00:49:29 10° NE 00:55:33 42° NNW 01:01:37 10° W
Cosmos 1943 4.4 01:03:04 36° NW 01:03:04 36° NW 01:07:58 10° N
Cosmos 2369 Rocket 4.2 01:04:46 10° NW 01:07:06 19° WNW 01:07:06 19° WNW
ADEOS Rocket 3.4 01:16:07 10° NNE 01:21:58 65° NNE 01:21:58 65° NNE
Cosmos 1725 Rocket 4.5 01:30:33 55° NNW 01:30:33 55° NNW 01:35:25 10° N
CZ-4C R/B 4.5 01:29:46 12° WNW 01:33:18 21° NNW 01:37:57 10° NNE
Mayak 1.3 01:32:11 10° N 01:33:35 19° NNW 01:33:35 19° NNW
ATLAS 5 CENTAUR R/B 4.4 01:33:57 10° WNW 01:35:41 17° WNW 01:35:41 17° WNW
Lacrosse 4 Rocket 3.8 02:01:59 10° N 02:05:06 21° NE 02:05:06 21° NE
Gbstr 26 Del rocket 4.3 02:16:39 83° E 02:16:39 83° E 02:23:39 10° ENE
Cosmos 2034 Rocket 4.3 02:25:57 61° ENE 02:25:57 61° ENE 02:31:38 10° NNE
Lacrosse 5 rocket 3.9 02:35:45 17° ENE 02:35:45 17° ENE 02:36:50 10° ENE
Cosmos 1867 4.3 02:27:56 10° NNW 02:33:14 48° NE 02:33:14 48° NE
Meteor 2-4 Rocket 4.1 02:39:37 56° NNE 02:39:37 56° NNE 02:43:49 10° NNE
Cosmos 967 Rocket 4.5 02:40:10 10° NNW 02:46:34 81° NE 02:46:34 81° NE
CZ-2D R/B 3.4 02:42:32 10° NNE 02:47:19 32° E 02:47:19 32° E
COSMOS 2406 4.3 02:50:43 35° NW 02:50:43 35° NW 02:55:36 10° N
Cosmos 2278 4.0 02:46:10 10° NNW 02:50:51 61° NNW 02:50:51 61° NNW
Cosmos 1464 Rocket 4.2 02:53:39 58° NW 02:53:39 58° NW 02:59:20 10° N
SL-16 R/B 3.1 02:51:48 44° ESE 02:53:23 55° ENE 02:59:29 10° N
Cosmos 1980 Rocket 3.4 02:49:54 10° NNW 02:55:08 38° ENE 02:58:12 22° ESE
Cosmos 1697 Rocket 2.9 02:52:04 10° NNW 02:57:44 66° ENE 02:57:47 66° ENE
Cosmos 2082 Rocket 2.3 03:06:40 71° ENE 03:06:40 71° ENE 03:11:56 10° NNE
H-2A R/B 3.5 03:07:52 10° NNE 03:10:57 45° NE 03:10:57 45° NE
Nadezhda 4 Rocket 3.9 03:08:12 10° NNW 03:13:59 67° WNW 03:13:59 67° WNW
ATLAS 3B R/B 4.5 03:16:15 17° SE 03:19:03 22° ESE 03:24:08 10° ENE
MOZ.5/SAFIR/RUBIN 5/SL-8 4.5 03:21:27 47° E 03:22:00 50° ENE 03:26:36 10° N
Cosmos 2322 Rocket 4.4 03:18:52 10° N 03:23:19 23° NE 03:27:45 10° ESE
Resurs 1-4 Rocket 2.2 03:18:08 10° NNE 03:23:23 67° ESE 03:23:32 67° ESE
Cosmos 1634 Rocket 4.0 03:24:53 61° SSE 03:25:57 76° E 03:32:12 10° N
Cosmos 1340 Rocket 4.3 03:28:57 31° N 03:28:57 31° N 03:31:12 10° N
Meteor 1-15 Rocket 4.3 03:25:55 10° NNW 03:31:38 64° W 03:31:38 64° W
IRS-P3 4.0 03:28:17 10° N 03:33:37 76° WNW 03:33:41 75° W
NPP 3.6 03:29:08 10° N 03:34:30 69° WNW 03:34:34 69° WNW
Cosmos 909 Rocket 4.4 03:29:30 10° NW 03:34:29 46° W 03:34:29 46° W
SL-08 R/B 3.7 03:37:48 54° NW 03:37:48 54° NW 03:41:45 10° NNW
Cosmos 2279 Rocket 4.4 03:36:56 36° SSE 03:39:19 58° E 03:45:27 10° NNE
CBERS-1 4.0 03:35:28 10° N 03:40:29 65° WNW 03:40:29 65° WNW
Cosmos 1833 Rocket 2.9 03:41:36 53° WNW 03:42:00 54° WNW 03:47:33 10° NNE
Cosmos 1025 Rocket 3.4 03:42:56 56° NNW 03:42:56 56° NNW 03:46:25 10° N
UNK 4.3 03:44:08 46° NW 03:44:08 46° NW 03:47:33 10° NNW
COSMOS 2487 3.8 03:45:12 39° NNE 03:45:12 39° NNE 03:47:31 10° NNE
Lacrosse 4 Rocket 3.5 03:40:04 10° NW 03:41:22 19° NW 03:41:22 19° NW
Cosmos 2208 Rocket 3.9 03:46:29 68° S 03:47:06 80° ESE 03:52:23 10° NNE
Cosmos 2026 Rocket 3.9 03:40:58 10° N 03:47:23 87° W 03:49:31 45° S
Cosmos 1898 Rocket 3.6 03:44:34 10° NNW 03:49:48 71° ENE 03:52:29 29° SSE
Cosmos 44 4.4 03:50:36 10° NNW 03:55:38 47° NE 04:00:49 10° SE
AQUA 4.2 03:53:29 10° N 03:58:01 47° WNW 03:58:01 47° WNW
Iridium 4 Rocket 3.8 04:00:48 41° NW 04:00:48 41° NW 04:04:24 10° N
Cosmos 1937 Rocket 3.8 03:54:56 10° NNW 04:00:06 63° ENE 04:05:12 10° SSE
BREEZE-M R/B 3.7 04:00:43 35° ESE 04:00:43 35° ESE 04:04:37 10° ENE
Cosmos 1570 Rocket 3.9 04:00:10 61° WSW 04:00:54 70° WNW 04:06:14 10° NNE
Cosmos 1766 3.5 04:00:33 10° N 04:04:25 63° E 04:04:57 55° ESE
Cosmos 2360 4.1 03:59:53 10° NNW 04:05:31 64° WSW 04:07:09 45° S
Cosmos 724 4.4 04:05:15 43° S 04:07:04 68° ESE 04:12:50 10° NE
Timation 2 Rocket 4.4 04:07:41 30° S 04:10:31 54° ESE 04:16:19 10° NE
Cosmos 1356 Rocket 3.3 04:10:57 66° WNW 04:10:57 66° WNW 04:14:51 10° N
Lacrosse 5 rocket 2.5 04:11:25 31° NW 04:12:07 34° NNW 04:15:53 10° NNE
ARIANE 5 R/B 2.5 04:07:07 10° N 04:12:21 72° WNW 04:13:42 49° SW
Spot 4 Rocket 4.0 04:07:59 10° N 04:13:08 68° WNW 04:14:22 50° SW
Cosmos 468 Rocket 3.9 04:12:08 51° SSW 04:13:31 80° WNW 04:18:53 10° NNE
Cosmos 990 Rocket 3.9 04:10:10 10° NNW 04:15:21 84° ENE 04:20:31 10° SSE
Cosmos 1066 Rocket 4.4 04:18:27 43° WSW 04:19:42 52° WNW 04:25:00 10° N
USA 238 DEB 4.0 04:17:40 29° S 04:21:16 62° ESE 04:28:07 10° NE
USA 238 4.0 04:17:46 29° S 04:21:22 61° ESE 04:28:13 10° NE
Cosmos 2266 Rocket 4.4 04:16:37 10° N 04:22:38 61° E 04:28:42 10° SSE
Cosmos 1814 Rocket 4.0 04:20:49 36° S 04:22:55 75° ESE 04:28:07 10° NNE
Cosmos 1655 Rocket 4.0 04:17:31 10° NNW 04:23:52 70° W 04:27:54 24° S
Cosmos 44 Rocket 4.1 04:19:24 10° NNW 04:24:28 55° NE 04:29:33 10° SE
Helios 1A Rocket 2.9 04:22:26 10° N 04:26:35 67° WNW 04:27:22 53° SW
CZ-2D R/B 2.9 04:22:31 10° N 04:27:24 36° WNW 04:28:39 31° W
CZ-2D R/B 3.3 04:23:41 10° NNE 04:27:46 85° WNW 04:28:56 47° SSW
Cosmos 2150 Rocket 4.1 04:23:21 10° NNW 04:28:52 82° ENE 04:34:19 10° SSE
Cosmos 1726 Rocket 3.7 04:30:39 10° NNW 04:34:49 48° W 04:35:31 43° SW
Cosmos 2298 Rocket 3.9 04:30:43 10° NNW 04:36:04 78° WSW 04:41:21 10° SSE
Cosmos 2360 Rocket 3.8 04:31:27 10° N 04:36:36 35° NE 04:41:44 10° ESE
Meteor 1-21 4.2 04:33:26 24° S 04:36:56 89° W 04:42:35 10° N
SL-16 R/B 3.5 04:36:53 25° W 04:37:19 26° W 04:42:25 10° NW
IRS-1D 4.5 04:33:57 10° N 04:38:31 33° WNW 04:40:00 28° W
Cosmos 1980 Rocket 2.8 04:34:03 10° NW 04:39:01 33° WSW 04:39:51 32° WSW
Cosmos 1697 Rocket 4.3 04:37:19 10° WNW 04:39:27 16° WNW 04:39:27 16° WNW
ADEOS II 2.1 04:42:56 10° NNE 04:48:14 86° ESE 04:52:21 17° SSW
ADEOS 3.7 04:45:18 10° N 04:50:25 56° WNW 04:53:17 25° SW
Cosmos 2082 Rocket 3.9 04:48:31 15° W 04:50:59 20° NW 04:55:06 10° N
Cosmos 841 Rocket 3.4 04:48:23 24° SSW 04:51:31 84° WNW 04:56:46 10° NNE
Cosmos 1812 Rocket 4.5 04:47:27 10° N 04:51:50 51° ENE 04:56:10 10° SSE
SL-16 R/B 2.1 04:46:39 10° NNW 04:52:21 78° WSW 04:58:00 10° SSE
UNKNOWN OBJECT B 3.3 04:49:07 10° N 04:52:46 41° WNW 04:53:49 33° WSW
Cosmos 2058 Rocket 3.5 04:51:56 10° NNW 04:56:07 41° W 04:58:13 25° SSW
Cosmos 1602 Rocket 3.7 04:53:47 13° S 04:57:35 75° E 05:01:55 10° NNE
NOSS 3-2 (C) 4.3 04:53:13 11° S 04:58:32 45° ESE 05:04:39 10° NE
Cosmos 1470 3.3 04:55:39 10° N 04:59:37 62° E 05:03:32 10° SSE
Cosmos 2228 3.7 04:56:11 10° NNW 05:00:02 33° W 05:01:28 26° SW
Resurs 1-4 Rocket 3.7 04:59:14 10° NNW 05:02:41 18° WNW 05:04:37 15° W
Cosmos 540 Rocket 3.5 05:02:52 13° SSW 05:07:29 79° ESE 05:12:39 10° NNE
Cosmos 2322 Rocket 2.2 05:02:15 10° NNW 05:07:49 61° WSW 05:13:20 10° S
ATLAS 3B R/B 2.8 05:03:31 18° SW 05:09:04 81° NW 05:16:02 10° NE
Cosmos 1626 Rocket 3.4 05:06:34 15° SSW 05:10:03 71° W 05:14:24 10° N
USA 161 4.3 05:10:24 10° SE 05:12:52 23° ENE 05:15:18 10° NNE
NOSS 3-2 (A) 3.5 05:10:13 15° SSW 05:15:14 81° SE 05:21:49 10° NE
SJ 16-02 1.4 05:11:06 10° NNW 05:15:33 86° ENE 05:19:57 10° SSE
Cosmos 292 Rocket 3.9 05:13:39 17° SW 05:17:18 61° WNW 05:22:05 10° NNE
Cosmos 1707 3.0 05:14:08 10° S 05:17:58 70° E 05:21:52 10° NNE
Cosmos 1763 Rocket 4.3 05:14:42 19° WSW 05:17:59 37° WNW 05:22:54 10° N
Cosmos 1378 3.0 05:14:37 10° S 05:18:20 83° W 05:22:07 10° N
Cosmos 1842 4.4 05:16:46 20° WSW 05:18:25 26° WNW 05:21:49 10° NNW
ATLAS CENTAUR R/B 2.5 05:17:10 10° NNW 05:21:28 53° NE 05:26:01 10° SE
USA 215 3.3 05:20:06 10° NE 05:26:41 86° SE 05:32:57 11° SW
CENTAUR R/B 4.0 05:24:41 10° S 05:29:54 34° ESE 05:35:46 10° NE
Meteor 1-31 Rocket 4.2 05:29:30 10° NNE 05:33:11 40° E 05:36:49 10° S
CZ-4B R/B 4.3 05:27:54 10° NNE 05:33:16 46° E 05:38:28 10° S
Cosmos 1953 2.8 05:30:14 10° NNW 05:34:05 41° W 05:37:53 10° SSW
PSLV R/B 3.7 05:31:13 10° NNE 05:35:06 87° ESE 05:38:52 10° SSW
Cosmos 44 4.3 05:32:15 10° NW 05:36:42 28° WSW 05:41:13 10° S
Cosmos 1553 Rocket 4.5 05:33:47 10° S 05:40:08 70° E 05:46:31 10° NNE
IDEFIX/ARIANE 42P 4.5 05:39:42 10° NNE 05:44:21 32° E 05:49:00 10° SSE
Cosmos 1125 Rocket 3.5 05:39:23 10° NNW 05:44:39 62° WSW 05:49:51 10° S
Cosmos 2292 Rocket 3.7 05:42:40 10° N 05:46:23 58° E 05:49:26 10° SSE
Aureole 2 Rocket 2.7 05:43:51 10° NNW 05:47:33 49° WSW 05:51:00 10° S
Cosmos 2237 4.3 05:43:26 10° NNW 05:49:12 90° ENE 05:54:55 10° SSE
Cosmos 2322 3.7 05:44:30 10° NNW 05:50:15 86° WSW 05:55:59 10° SSE
Meteor 1-28 Rocket 3.2 05:46:52 10° SSE 05:50:36 89° ENE 05:54:23 10° NNW
Lacrosse 5 rocket 3.8 05:50:17 10° NW 05:52:20 13° NNW 05:54:20 10° NNE
Meteor PRIRODA 4.0 05:48:53 10° NNE 05:52:35 70° E 05:56:17 10° S
PSLV R/B 4.2 05:50:05 10° SW 05:52:45 30° SSE 05:55:26 10° E
CZ-4B R/B 4.2 05:49:12 10° NNE 05:53:00 67° ESE 05:56:55 10° S
CZ-4B DEB 4.4 05:49:04 10° NNE 05:54:40 82° ESE 06:00:11 10° SSW
Cosmos-2242 3.8 05:50:40 10° N 05:54:54 56° E 05:59:04 10° SSE
Okean O Rocket 1.7 05:51:16 10° NNE 05:55:39 86° ESE 05:59:59 10° SSW
ERBS 2.5 05:56:12 10° SW 05:59:33 69° SE 06:02:56 10° NE
Cosmos 1825 Rocket 3.5 05:55:50 10° SSW 06:00:06 65° W 06:04:26 10° N
USA 267 3.7 05:55:14 10° ESE 06:01:43 69° NE 06:08:14 10° NW
